Content
SEND FEEDBACK

Daily
Averages
Monthly
Summary
United States of America

HAINES, ALASKA


Home > North America > United States > Alaska
Elevation: 1372 feet     Latitude: 59 15N     Longitude: 135 31W

WEATHER
 
SELECT A DAY
Number of Records: 197,952;   Date Range: 6/13/96 - 12/25/14
 
SHARE

PRINT THIS DATA

[ ← Previous Day ]
WEATHER ALMANAC - FEBRUARY 5, 2013
[ Next Day → ]
[ °C ]   °F
Weather ElementAverageHighLow
Temperature25.7 °F30 °F (1:54 pm)21 °F (8:54 am)
Dewpoint19.1 °F21 °F (1:54 am)17.1 °F (6:54 am)
Humidity76.8 %88 % (9:54 am)64 % (1:54 pm)
Barometer29.58 in29.67 in (1:54 am)29.54 in (12:54 pm)
Wind Speed14.8 mph20.7 mph (6:54 am)
Wind Gust27.6 mph (2:54 am)
Weather ElementAverage
Visibility10 mi
Wind DirectionWNW (296.1 °)

Weather ElementTotal
Precipitation---
Heating Degree Days39.5 (Base 65)
Averaged from 23 records on February 5, 2013
WEATHER CONDITIONS BREAKOUT
WIND DIRECTION BREAKOUT
WEATHER BY HOUR - FEBRUARY 5, 2013
[ °C ]   °F
Local TimeTemperatureDewpointHumidityBarometerVisibilityWind DirectionWind SpeedGust SpeedPrecipitationEventsConditions
1:54 AM28.0 °F21.0 °F75 %29.67 in10.0 miNW (310°)16.1 mph24.2 mphClear
2:54 AM27.0 °F19.9 °F75 %29.65 in10.0 miNW (310°)19.6 mph27.6 mphClear
3:54 AM26.1 °F19.0 °F75 %29.62 in10.0 miWNW (300°)17.3 mphClear
4:54 AM27.0 °F18.0 °F69 %29.60 in10.0 miNW (310°)18.4 mph24.2 mphClear
5:54 AM28.0 °F18.0 °F66 %29.59 in10.0 miNW (320°)18.4 mph27.6 mphClear
6:54 AM21.9 °F17.1 °F82 %29.58 in10.0 miWNW (290°)20.7 mphClear
7:54 AM21.9 °F18.0 °F85 %29.57 in10.0 miWNW (290°)19.6 mphClear
8:54 AM21.0 °F17.1 °F85 %29.57 in10.0 miWNW (290°)17.3 mphClear
9:54 AM21.0 °F18.0 °F88 %29.57 in10.0 miWNW (290°)16.1 mphClear
10:54 AM21.9 °F18.0 °F85 %29.57 in10.0 miWNW (290°)16.1 mphClear
11:54 AM23.0 °F18.0 °F81 %29.55 in10.0 miWNW (290°)16.1 mphClear
12:54 PM26.1 °F19.0 °F75 %29.54 in10.0 miWNW (300°)13.8 mphClear
1:54 PM30.0 °F19.0 °F64 %29.54 in10.0 miWNW (300°)11.5 mphClear
2:54 PM30.0 °F19.9 °F66 %29.54 in10.0 miWNW (290°)11.5 mphClear
3:54 PM27.0 °F19.9 °F75 %29.55 in10.0 miWNW (290°)11.5 mphScattered Clouds
4:54 PM26.1 °F19.9 °F78 %29.56 in10.0 miWest (280°)12.7 mphOvercast
5:54 PM26.1 °F19.9 °F78 %29.56 in10.0 miWNW (290°)13.8 mphOvercast
6:54 PM28.0 °F19.9 °F72 %29.57 in10.0 miWNW (300°)11.5 mphOvercast
7:54 PM27.0 °F19.9 °F75 %29.57 in10.0 miWNW (290°)12.7 mphOvercast
8:54 PM25.0 °F19.9 °F81 %29.58 in10.0 miWNW (290°)12.7 mphOvercast
9:54 PM26.1 °F21.0 °F81 %29.60 in10.0 miWNW (300°)8.1 mphOvercast
10:54 PM25.0 °F19.9 °F81 %29.60 in10.0 miWNW (290°)12.7 mphOvercast
11:54 PM27.0 °F19.9 °F75 %29.61 in10.0 miWNW (300°)12.7 mphOvercast
Hourly data recorded from PAHN, located miles away from Haines, Alaska







STORIES FROM OUR PARTNERS